| time (UTC) | temp F | wind direction | speed knots | gust knots | rain 1hr in | rain 24hr in | rain mn in | humidity % | barometer mb |
| 20260505035334 | 43 | 173 | 2.6 | 5.2 | 0.00 | 0.20 | 0.20 | 37 | 1018.3 |
| 20260505034832 | 43 | 140 | 0.0 | 4.3 | 0.00 | 0.20 | 0.20 | 39 | 1018.1 |
| 20260505034328 | 43 | 81 | 0.9 | 3.5 | 0.00 | 0.20 | 0.20 | 38 | 1018.5 |
| 20260505033826 | 44 | 202 | 3.5 | 4.3 | 0.00 | 0.20 | 0.20 | 36 | 1018.3 |
| 20260505033322 | 45 | 206 | 6.1 | 8.7 | 0.00 | 0.20 | 0.20 | 35 | 1018.3 |
| 20260505032821 | 44 | 176 | 7.8 | 7.8 | 0.00 | 0.20 | 0.20 | 38 | 1017.9 |
| 20260505032316 | 45 | 173 | 2.6 | 7.0 | 0.00 | 0.20 | 0.20 | 35 | 1017.9 |
| 20260505031814 | 45 | 213 | 3.5 | 10.4 | 0.00 | 0.20 | 0.20 | 34 | 1017.9 |
| 20260505031310 | 44 | 130 | 2.6 | 6.1 | 0.00 | 0.20 | 0.20 | 34 | 1018.1 |
| 20260505030808 | 45 | 171 | 2.6 | 8.7 | 0.00 | 0.20 | 0.20 | 34 | 1017.9 |
| 20260505030304 | 45 | 189 | 3.5 | 9.6 | 0.00 | 0.20 | 0.20 | 34 | 1018.1 |
| 20260505025759 | 44 | 174 | 5.2 | 11.3 | 0.00 | 0.20 | 0.20 | 34 | 1018.1 |
| 20260505025257 | 43 | 142 | 2.6 | 3.5 | 0.00 | 0.20 | 0.20 | 38 | 1018.0 |
| 20260505024755 | 45 | 163 | 2.6 | 3.5 | 0.00 | 0.20 | 0.20 | 34 | 1017.7 |
| 20260505024252 | 44 | 127 | 2.6 | 5.2 | 0.00 | 0.20 | 0.20 | 36 | 1017.7 |
| 20260505023749 | 45 | 164 | 5.2 | 8.7 | 0.00 | 0.20 | 0.20 | 33 | 1017.6 |
| 20260505023246 | 45 | 243 | 5.2 | 10.4 | 0.00 | 0.20 | 0.20 | 33 | 1017.7 |
| 20260505022744 | 45 | 203 | 3.5 | 7.0 | 0.00 | 0.20 | 0.20 | 32 | 1017.7 |
| 20260505022241 | 45 | 109 | 4.3 | 7.8 | 0.00 | 0.20 | 0.20 | 34 | 1017.9 |
| 20260505021737 | 45 | 19 | 2.6 | 6.1 | 0.00 | 0.20 | 0.20 | 33 | 1017.7 |
| 20260505021235 | 45 | 245 | 0.0 | 6.1 | 0.00 | 0.20 | 0.20 | 32 | 1017.6 |
| 20260505020730 | 44 | 359 | 3.5 | 5.2 | 0.00 | 0.20 | 0.20 | 34 | 1017.6 |
| 20260505020225 | 44 | 216 | 1.7 | 5.2 | 0.00 | 0.20 | 0.20 | 36 | 1017.9 |
| 20260505015723 | 44 | 84 | 4.3 | 5.2 | 0.00 | 0.20 | 0.20 | 35 | 1017.7 |
| 20260505015220 | 44 | 57 | 1.7 | 4.3 | 0.00 | 0.20 | 0.20 | 37 | 1017.7 |
| 20260505014717 | 45 | 162 | 0.0 | 4.3 | 0.00 | 0.20 | 0.20 | 32 | 1017.6 |
| 20260505014214 | 45 | 99 | 2.6 | 5.2 | 0.00 | 0.20 | 0.20 | 33 | 1017.6 |
| 20260505013711 | 46 | 139 | 0.9 | 3.5 | 0.00 | 0.20 | 0.20 | 30 | 1017.5 |
| 20260505013208 | 46 | 179 | 5.2 | 8.7 | 0.00 | 0.20 | 0.20 | 30 | 1017.5 |
| 20260505012706 | 46 | 129 | 2.6 | 13.0 | 0.00 | 0.20 | 0.20 | 29 | 1017.6 |
| 20260505012203 | 46 | 125 | 2.6 | 4.3 | 0.00 | 0.20 | 0.20 | 29 | 1017.6 |
| 20260505011659 | 46 | 246 | 3.5 | 4.3 | 0.00 | 0.20 | 0.20 | 27 | 1017.5 |
| 20260505011156 | 46 | 40 | 0.9 | 2.6 | 0.00 | 0.20 | 0.20 | 30 | 1017.9 |
| 20260505010651 | 47 | 233 | 0.9 | 3.5 | 0.00 | 0.20 | 0.20 | 28 | 1017.7 |
| 20260505010149 | 47 | 163 | 3.5 | 14.8 | 0.00 | 0.20 | 0.20 | 26 | 1017.7 |
| 20260505005644 | 47 | 191 | 8.7 | 15.6 | 0.00 | 0.20 | 0.20 | 27 | 1017.7 |
| 20260505005142 | 47 | 178 | 7.8 | 14.8 | 0.00 | 0.20 | 0.20 | 27 | 1017.9 |
| 20260505004639 | 47 | 206 | 7.0 | 13.9 | 0.00 | 0.20 | 0.20 | 29 | 1017.7 |
| 20260505004135 | 47 | 237 | 9.6 | 26.1 | 0.00 | 0.20 | 0.20 | 29 | 1017.6 |
| 20260505003632 | 48 | 212 | 17.4 | 22.6 | 0.00 | 0.20 | 0.20 | 30 | 1017.9 |
| 20260505003130 | 48 | 243 | 15.6 | 19.1 | 0.00 | 0.20 | 0.20 | 32 | 1017.6 |
| 20260505002626 | 48 | 205 | 5.2 | 28.7 | 0.00 | 0.20 | 0.20 | 31 | 1017.7 |
| 20260505002124 | 48 | 185 | 5.2 | 15.6 | 0.00 | 0.20 | 0.20 | 35 | 1017.6 |
| 20260505001621 | 48 | 182 | 14.8 | 20.9 | 0.00 | 0.20 | 0.20 | 35 | 1017.6 |
| 20260505001119 | 48 | 250 | 10.4 | 22.6 | 0.00 | 0.20 | 0.20 | 34 | 1017.5 |
| 20260505000615 | 48 | 218 | 24.3 | 33.0 | 0.00 | 0.20 | 0.20 | 32 | 1017.6 |
| 20260505000114 | 48 | 230 | 13.9 | 32.2 | 0.00 | 0.20 | 0.20 | 35 | 1017.3 |
| 20260504235609 | 48 | 228 | 21.7 | 33.0 | 0.00 | 0.20 | 0.20 | 34 | 1017.6 |
| 20260504235106 | 49 | 229 | 15.6 | 18.2 | 0.00 | 0.20 | 0.20 | 36 | 1017.2 |
| 20260504234603 | 49 | 233 | 18.2 | 26.1 | 0.00 | 0.20 | 0.20 | 36 | 1017.2 |
| 20260504234100 | 49 | 191 | 22.6 | 22.6 | 0.00 | 0.20 | 0.20 | 34 | 1017.5 |
| 20260504233555 | 49 | 241 | 9.6 | 19.1 | 0.00 | 0.20 | 0.20 | 32 | 1017.6 |
| 20260504233052 | 50 | 238 | 12.2 | 23.5 | 0.00 | 0.20 | 0.20 | 31 | 1017.5 |
| 20260504232550 | 49 | 231 | 11.3 | 30.4 | 0.00 | 0.20 | 0.20 | 31 | 1017.7 |
| 20260504232047 | 49 | 229 | 4.3 | 24.3 | 0.00 | 0.20 | 0.20 | 29 | 1017.5 |
| 20260504231543 | 49 | 222 | 11.3 | 28.7 | 0.00 | 0.20 | 0.20 | 28 | 1017.5 |
| 20260504231040 | 50 | 227 | 7.0 | 25.2 | 0.00 | 0.20 | 0.20 | 33 | 1017.5 |
| 20260504230536 | 49 | 237 | 7.8 | 29.5 | 0.00 | 0.20 | 0.20 | 38 | 1017.2 |
| 20260504230035 | 50 | 207 | 7.8 | 29.5 | 0.00 | 0.20 | 0.20 | 35 | 1017.1 |
| 20260504225532 | 51 | 238 | 8.7 | 20.0 | 0.00 | 0.20 | 0.20 | 35 | 1017.2 |
| 20260504225029 | 50 | 236 | 7.8 | 20.9 | 0.00 | 0.20 | 0.20 | 37 | 1016.8 |
| 20260504224525 | 50 | 253 | 15.6 | 32.2 | 0.00 | 0.20 | 0.20 | 37 | 1017.2 |
| 20260504224023 | 50 | 241 | 7.0 | 32.2 | 0.00 | 0.20 | 0.20 | 39 | 1017.2 |
| 20260504223519 | 50 | 224 | 14.8 | 24.3 | 0.00 | 0.20 | 0.20 | 37 | 1017.3 |
| 20260504223015 | 51 | 207 | 13.0 | 23.5 | 0.00 | 0.20 | 0.20 | 37 | 1017.5 |
| 20260504222512 | 52 | 247 | 11.3 | 29.5 | 0.00 | 0.20 | 0.20 | 33 | 1017.2 |
| 20260504222010 | 52 | 215 | 13.9 | 19.1 | 0.00 | 0.20 | 0.20 | 38 | 1017.5 |
| 20260504221507 | 50 | 205 | 10.4 | 26.9 | 0.00 | 0.20 | 0.20 | 38 | 1017.7 |
| 20260504221004 | 54 | 234 | 6.1 | 18.2 | 0.00 | 0.20 | 0.20 | 37 | 1017.5 |
| 20260504220500 | 53 | 234 | 9.6 | 18.2 | 0.00 | 0.20 | 0.20 | 36 | 1017.6 |
| 20260504215957 | 51 | 222 | 7.8 | 15.6 | 0.00 | 0.20 | 0.20 | 36 | 1017.6 |
| 20260504215453 | 51 | 239 | 26.9 | 26.9 | 0.00 | 0.20 | 0.20 | 38 | 1017.7 |
| 20260504214950 | 52 | 224 | 13.0 | 17.4 | 0.00 | 0.20 | 0.20 | 36 | 1017.6 |
| 20260504214446 | 51 | 226 | 14.8 | 26.1 | 0.00 | 0.20 | 0.20 | 34 | 1017.9 |
| 20260504213943 | 52 | 240 | 8.7 | 19.1 | 0.00 | 0.20 | 0.20 | 37 | 1017.7 |
| 20260504213439 | 51 | 230 | 7.8 | 20.0 | 0.00 | 0.20 | 0.20 | 37 | 1018.0 |
| 20260504212937 | 50 | 229 | 14.8 | 27.8 | 0.00 | 0.20 | 0.20 | 34 | 1018.1 |
| 20260504212432 | 51 | 225 | 13.0 | 25.2 | 0.00 | 0.20 | 0.20 | 36 | 1018.1 |
| 20260504211931 | 52 | 233 | 7.0 | 26.1 | 0.00 | 0.20 | 0.20 | 35 | 1018.0 |
| 20260504211426 | 51 | 228 | 14.8 | 27.8 | 0.00 | 0.20 | 0.20 | 35 | 1018.3 |
| 20260504210924 | 51 | 236 | 8.7 | 21.7 | 0.00 | 0.20 | 0.20 | 38 | 1018.3 |
| 20260504210421 | 51 | 226 | 11.3 | 35.6 | 0.00 | 0.20 | 0.20 | 36 | 1018.4 |
| 20260504205918 | 51 | 238 | 17.4 | 30.4 | 0.00 | 0.20 | 0.20 | 34 | 1018.3 |
| 20260504205416 | 53 | 209 | 19.1 | 21.7 | 0.00 | 0.20 | 0.20 | 38 | 1018.4 |
| 20260504204914 | 51 | 219 | 14.8 | 19.1 | 0.00 | 0.20 | 0.20 | 39 | 1018.4 |
| 20260504204412 | 51 | 227 | 6.1 | 22.6 | 0.00 | 0.20 | 0.20 | 39 | 1018.5 |
| 20260504203911 | 51 | 216 | 13.0 | 18.2 | 0.00 | 0.20 | 0.20 | 38 | 1018.5 |
| 20260504203408 | 51 | 217 | 4.3 | 20.9 | 0.00 | 0.20 | 0.20 | 40 | 1018.7 |
| 20260504202903 | 51 | 221 | 13.0 | 26.1 | 0.00 | 0.20 | 0.20 | 38 | 1018.9 |
| 20260504202400 | 51 | 240 | 12.2 | 22.6 | 0.00 | 0.20 | 0.20 | 40 | 1018.8 |
| 20260504201857 | 50 | 221 | 17.4 | 22.6 | 0.00 | 0.20 | 0.20 | 41 | 1018.5 |
| 20260504201355 | 51 | 238 | 7.0 | 18.2 | 0.00 | 0.20 | 0.20 | 39 | 1018.8 |
| 20260504200852 | 50 | 213 | 5.2 | 22.6 | 0.00 | 0.20 | 0.20 | 40 | 1018.8 |
| 20260504200348 | 51 | 225 | 8.7 | 21.7 | 0.00 | 0.20 | 0.20 | 39 | 1018.9 |
| 20260504195845 | 51 | 226 | 13.0 | 23.5 | 0.00 | 0.20 | 0.20 | 39 | 1019.1 |
| 20260504195340 | 52 | 264 | 7.8 | 20.9 | 0.00 | 0.20 | 0.20 | 38 | 1018.9 |
| 20260504194837 | 51 | 226 | 13.9 | 21.7 | 0.00 | 0.20 | 0.20 | 39 | 1018.7 |
| 20260504194333 | 51 | 225 | 12.2 | 21.7 | 0.00 | 0.20 | 0.20 | 41 | 1018.9 |
| 20260504193829 | 51 | 228 | 5.2 | 20.0 | 0.00 | 0.20 | 0.20 | 40 | 1018.9 |
| 20260504193327 | 50 | 200 | 14.8 | 20.9 | 0.00 | 0.20 | 0.20 | 43 | 1018.9 |
| 20260504192826 | 50 | 209 | 20.0 | 31.3 | 0.00 | 0.20 | 0.20 | 42 | 1018.9 |
| 20260504192323 | 51 | 219 | 6.1 | 13.9 | 0.00 | 0.20 | 0.20 | 41 | 1018.9 |
| 20260504191822 | 52 | 220 | 7.8 | 18.2 | 0.00 | 0.20 | 0.20 | 42 | 1018.9 |
| 20260504191319 | 51 | 231 | 7.8 | 19.1 | 0.00 | 0.20 | 0.20 | 42 | 1019.1 |
| 20260504190814 | 52 | 253 | 19.1 | 19.1 | 0.00 | 0.20 | 0.20 | 41 | 1018.8 |
| 20260504190310 | 51 | 228 | 13.0 | 15.6 | 0.00 | 0.20 | 0.20 | 43 | 1019.2 |
| 20260504185807 | 51 | 218 | 6.1 | 20.9 | 0.00 | 0.20 | 0.20 | 41 | 1019.2 |
| 20260504185305 | 51 | 210 | 7.0 | 26.1 | 0.00 | 0.20 | 0.20 | 39 | 1018.9 |
| 20260504184800 | 50 | 233 | 9.6 | 20.9 | 0.00 | 0.20 | 0.20 | 44 | 1019.2 |
| 20260504184256 | 51 | 225 | 15.6 | 22.6 | 0.00 | 0.20 | 0.20 | 44 | 1019.1 |
| 20260504183752 | 51 | 212 | 7.0 | 12.2 | 0.00 | 0.20 | 0.20 | 46 | 1019.3 |
| 20260504183249 | 50 | 192 | 7.8 | 17.4 | 0.00 | 0.20 | 0.20 | 44 | 1019.1 |
| 20260504182747 | 51 | 266 | 7.0 | 14.8 | 0.00 | 0.20 | 0.20 | 48 | 1019.2 |
| 20260504182244 | 50 | 232 | 8.7 | 19.1 | 0.00 | 0.20 | 0.20 | 46 | 1019.2 |
| 20260504181742 | 52 | 209 | 7.8 | 15.6 | 0.00 | 0.20 | 0.20 | 45 | 1019.5 |
| 20260504181239 | 51 | 221 | 5.2 | 15.6 | 0.00 | 0.20 | 0.20 | 47 | 1019.6 |
| 20260504180738 | 51 | 239 | 10.4 | 14.8 | 0.00 | 0.20 | 0.20 | 45 | 1019.5 |
| 20260504180236 | 51 | 226 | 9.6 | 16.5 | 0.00 | 0.20 | 0.20 | 44 | 1019.7 |
| 20260504175733 | 51 | 220 | 12.2 | 17.4 | 0.00 | 0.20 | 0.20 | 45 | 1019.5 |
| 20260504175230 | 51 | 218 | 7.8 | 15.6 | 0.00 | 0.20 | 0.20 | 45 | 1019.7 |
| 20260504174728 | 51 | 227 | 7.0 | 12.2 | 0.00 | 0.20 | 0.20 | 47 | 1019.7 |
| 20260504174226 | 51 | 247 | 9.6 | 13.0 | 0.00 | 0.20 | 0.20 | 46 | 1019.6 |
| 20260504173722 | 50 | 239 | 11.3 | 21.7 | 0.00 | 0.20 | 0.20 | 48 | 1019.7 |
| 20260504173219 | 51 | 227 | 14.8 | 17.4 | 0.00 | 0.20 | 0.20 | 47 | 1019.9 |
| 20260504172715 | 50 | 212 | 5.2 | 12.2 | 0.00 | 0.20 | 0.20 | 50 | 1019.7 |
| 20260504172212 | 50 | 244 | 9.6 | 18.2 | 0.00 | 0.20 | 0.20 | 48 | 1020.0 |
| 20260504171708 | 50 | 248 | 8.7 | 15.6 | 0.00 | 0.20 | 0.20 | 51 | 1020.0 |
| 20260504171206 | 50 | 243 | 2.6 | 13.0 | 0.00 | 0.20 | 0.20 | 56 | 1019.9 |
| 20260504170702 | 49 | 241 | 8.7 | 11.3 | 0.00 | 0.20 | 0.20 | 59 | 1020.1 |
| 20260504170200 | 48 | 180 | 7.8 | 18.2 | 0.00 | 0.20 | 0.20 | 59 | 1020.3 |
| 20260504160118 | 46 | 212 | 8.7 | 20.0 | 0.00 | 0.20 | 0.20 | 62 | 1020.3 |
| 20260504151045 | 45 | 229 | 4.3 | 10.4 | 0.00 | 0.20 | 0.20 | 69 | 1020.7 |
| 20260504150543 | 44 | 250 | 7.8 | 8.7 | 0.00 | 0.20 | 0.20 | 71 | 1020.5 |
| 20260504141008 | 42 | 186 | 2.6 | 2.6 | 0.00 | 0.20 | 0.20 | 79 | 1020.9 |
| 20260504140505 | 41 | 86 | 2.6 | 6.1 | 0.00 | 0.20 | 0.20 | 81 | 1020.8 |
| 20260504130430 | 37 | 94 | 3.5 | 6.1 | 0.00 | 0.20 | 0.20 | 93 | 1020.5 |
| 20260504110317 | 34 | 97 | 5.2 | 10.4 | 0.00 | 0.20 | 0.20 | 97 | 1021.2 |
| 20260504100234 | 34 | 224 | 1.7 | 3.5 | 0.00 | 0.20 | 0.20 | 97 | 1021.7 |
| 20260504081628 | 35 | 161 | 3.5 | 5.2 | 0.02 | 0.12 | 0.12 | 95 | 1022.1 |
| 20260504081123 | 35 | 153 | 3.5 | 6.1 | 0.05 | 0.12 | 0.12 | 95 | 1022.0 |
| 20260504080620 | 35 | 127 | 5.2 | 7.0 | 0.09 | 0.11 | 0.11 | 95 | 1021.8 |
| 20260504080117 | 35 | 167 | 2.6 | 2.6 | 0.12 | 0.11 | 0.11 | 95 | 1022.1 |
| 20260504050433 | 41 | 205 | 19.1 | 29.5 | 0.00 | 0.00 | 0.00 | 67 | 1022.9 |
| 20260504045930 | 42 | 213 | 26.1 | 35.6 | 0.00 | 0.00 | 0.00 | 63 | 1022.6 |
| 20260504045426 | 43 | 223 | 19.1 | 28.7 | 0.00 | 0.00 | 0.00 | 59 | 1022.5 |
| 20260504044922 | 44 | 219 | 18.2 | 24.3 | 0.00 | 0.00 | 0.00 | 55 | 1022.8 |
| 20260504044420 | 44 | 197 | 13.9 | 23.5 | 0.00 | 0.00 | 0.00 | 54 | 1022.8 |
| 20260504043917 | 44 | 205 | 12.2 | 25.2 | 0.00 | 0.00 | 0.00 | 51 | 1023.0 |
| 20260504043414 | 45 | 213 | 13.0 | 20.9 | 0.00 | 0.00 | 0.00 | 50 | 1022.8 |
| 20260504042912 | 44 | 202 | 7.8 | 19.1 | 0.00 | 0.00 | 0.00 | 50 | 1022.6 |
| 20260504042408 | 45 | 214 | 11.3 | 26.9 | 0.00 | 0.00 | 0.00 | 49 | 1022.6 |
| 20260504041904 | 45 | 221 | 17.4 | 34.8 | 0.00 | 0.00 | 0.00 | 48 | 1022.2 |
| 20260504041400 | 47 | 215 | 9.6 | 26.9 | 0.00 | 0.00 | 0.00 | 43 | 1022.1 |
| 20260504040856 | 47 | 230 | 21.7 | 38.2 | 0.00 | 0.00 | 0.00 | 41 | 1021.7 |
| 20260504040354 | 46 | 218 | 8.7 | 11.3 | 0.00 | 0.00 | 0.00 | 37 | 1022.0 |
| 20260504035850 | 46 | 199 | 4.3 | 7.8 | 0.00 | 0.00 | 0.00 | 36 | 1021.7 |